TimeMDT,TemperatureF,Dew PointF,Humidity,Sea Level PressureIn,VisibilityMPH,Wind Direction,Wind SpeedMPH,Gust SpeedMPH,PrecipitationIn,Events,Conditions,WindDirDegrees,DateUTC
12:53 AM,51.1,32.0,48,30.05,10.0,Calm,Calm,-,N/A,,Mostly Cloudy,0,2012-10-04 06:53:00
1:53 AM,51.1,30.0,44,30.05,10.0,North,3.5,-,N/A,,Mostly Cloudy,10,2012-10-04 07:53:00
2:53 AM,48.0,30.0,50,30.07,10.0,West,3.5,-,N/A,,Scattered Clouds,280,2012-10-04 08:53:00
3:53 AM,48.0,28.0,46,30.06,10.0,Calm,Calm,-,N/A,,Scattered Clouds,0,2012-10-04 09:53:00
4:53 AM,48.0,28.9,48,30.06,10.0,Calm,Calm,-,N/A,,Partly Cloudy,0,2012-10-04 10:53:00
5:53 AM,45.0,28.9,53,30.07,10.0,South,4.6,-,N/A,,Partly Cloudy,190,2012-10-04 11:53:00
6:53 AM,45.0,30.0,56,30.08,10.0,SE,3.5,-,N/A,,Partly Cloudy,140,2012-10-04 12:53:00
7:53 AM,44.1,28.0,53,30.10,10.0,South,4.6,-,N/A,,Partly Cloudy,190,2012-10-04 13:53:00
8:53 AM,50.0,27.0,41,30.09,10.0,SE,5.8,-,N/A,,Partly Cloudy,140,2012-10-04 14:53:00
9:53 AM,54.0,25.0,33,30.09,10.0,Calm,Calm,-,N/A,,Clear,0,2012-10-04 15:53:00
10:53 AM,59.0,26.1,28,30.09,10.0,Calm,Calm,-,N/A,,Partly Cloudy,0,2012-10-04 16:53:00
11:53 AM,62.1,28.9,29,30.07,10.0,NNW,5.8,-,N/A,,Partly Cloudy,330,2012-10-04 17:53:00
12:53 PM,63.0,28.0,27,30.05,10.0,Variable,3.5,-,N/A,,Partly Cloudy,0,2012-10-04 18:53:00
1:53 PM,66.0,26.1,22,30.01,10.0,WNW,5.8,-,N/A,,Partly Cloudy,300,2012-10-04 19:53:00
2:53 PM,68.0,27.0,21,29.99,10.0,North,5.8,-,N/A,,Partly Cloudy,350,2012-10-04 20:53:00
3:53 PM,70.0,27.0,20,29.97,10.0,NW,9.2,-,N/A,,Partly Cloudy,320,2012-10-04 21:53:00
4:53 PM,69.1,26.1,20,29.94,10.0,North,11.5,-,N/A,,Partly Cloudy,350,2012-10-04 22:53:00
5:53 PM,68.0,28.9,23,29.94,10.0,NNW,11.5,-,N/A,,Scattered Clouds,340,2012-10-04 23:53:00
6:53 PM,64.0,26.1,24,29.94,10.0,NW,6.9,-,N/A,,Scattered Clouds,310,2012-10-05 00:53:00
7:53 PM,60.1,28.9,31,29.95,10.0,West,5.8,-,N/A,,Partly Cloudy,280,2012-10-05 01:53:00
8:53 PM,55.9,39.0,53,29.95,10.0,NNW,8.1,-,N/A,,Mostly Cloudy,340,2012-10-05 02:53:00
9:53 PM,59.0,35.1,41,29.95,10.0,NW,9.2,-,N/A,,Mostly Cloudy,320,2012-10-05 03:53:00
10:53 PM,54.0,34.0,47,29.96,10.0,West,4.6,-,N/A,,Mostly Cloudy,280,2012-10-05 04:53:00
11:53 PM,52.0,35.1,53,29.98,10.0,Calm,Calm,-,N/A,,Mostly Cloudy,0,2012-10-05 05:53:00